www.pogodaiklimat.ru
ПОГОДА в Эльмире
Время
и дата
03:53 14.07
04:53 14.07
05:26 14.07
05:41 14.07
05:53 14.07
06:26 14.07
06:53 14.07
07:53 14.07
08:53 14.07
09:53 14.07
10:53 14.07
11:53 14.07
12:53 14.07
13:53 14.07
14:53 14.07
15:53 14.07
16:53 14.07
17:53 14.07
18:53 14.07
19:53 14.07
20:53 14.07
21:53 14.07
22:53 14.07
23:53 14.07
00:53 15.07
01:53 15.07
02:53 15.07
03:53 15.07
04:53 15.07
05:53 15.07
06:53 15.07
07:53 15.07
08:53 15.07
09:53 15.07
10:53 15.07
11:53 15.07
12:53 15.07
13:53 15.07
14:53 15.07
15:53 15.07
16:45 15.07
16:53 15.07
17:03 15.07
17:40 15.07
17:53 15.07
18:53 15.07
19:53 15.07
20:53 15.07
Ветер
(напр.,м/с)
Видим. Явления Облачность Т
(С)
Тd
(С)
f
(%)
Тe
(С)
Тes
(С)
Комфортность P
(гПа)
Po
(гПа)
Тmin
(С)
Tmax
(С)
R
(мм)
R24
(мм)
S
(см)
штиль 0 14 км 2/2 1800 м +17.8 +17.2 96 +18 +18 1018.7 984.5
штиль 0 10 км дымка ясно +17.8 +16.7 93 +18 +18 1018.6 984.5
штиль 0 6 км дымка 2/2 120 м +17.2 +16.1 93 +17 +17 984.5
штиль 0 6 км дымка 8/8 120 м +17.8 +16.7 93 +18 +18 984.5
штиль 0 11 км 10/10 90 м +18.3 +16.7 90 +19 +19 1018.5 984.5
штиль 0 16 км 2/2 90 м +19.4 +17.8 90 +21 +23 комфорт 984.8
штиль 0 16 км 2/2 1650 м +20.6 +18.3 87 +24 +25 комфорт 1018.8 984.8 +16.7 +20.6
штиль 0 16 км 5/5 1650 м +22.2 +19.4 84 +28 +30 душно 1018.7 984.5
В 2 16 км ясно +26.1 +18.9 65 +31 +39 очень
душно
1018.0 983.8
штиль 0 16 км ясно +28.3 +16.7 49 +32 +47 душно 1017.7 983.5
штиль 0 16 км ясно +29.4 +18.9 53 +35 +55 опасность
солнечного
удара
1017.2 983.2
ЮЗ 5 16 км 5/5 1410 м +31.1 +18.9 48 +36 +41 очень
душно
1016.5 982.5
16 км ясно +32.2 +17.2 41 +36 +62 опасность
солнечного
удара
1015.5 981.5 +20.6 +32.2
Ю 3 16 км 2/0 2100 m
[Ac]
+32.2 +17.2 41 +36 +49 очень
душно
1014.5 980.6
Ю 2 16 км 2/0 2250 m
[Ac]
+32.2 +15.6 37 +35 +49 очень
душно
1013.9 979.9
З 4 16 км ясно +32.8 +13.3 31 +34 +42 очень
жарко
1013.0 979.3
Ю 3 16 км ясно +31.7 +16.1 39 +35 +41 очень
душно
1013.0 979.3
штиль 0 16 км 8/0 3300 m
[Ac]
+30.0 +20.0 55 +36 +39 очень
душно
1013.3 979.3
З 2 16 км 10/0 2700 m
[Ac]
+26.7 +19.4 64 +32 +33 очень
душно
1013.4 979.6 +26.7 +33.3
Ю 2 16 км слабый дождь 10/0 2700 m
[Ac As]
+26.1 +18.9 65 +31 +31 очень
душно
1013.3 979.6
ЮЗ 2 16 км 10/0 2700 m
[Ac]
+25.0 +20.0 74 +31 +31 очень
душно
1013.2 979.3
Ю 2 16 км 10/0 3000 m
[Ac]
+24.4 +20.0 76 +30 +30 очень
душно
1012.9 979.3
штиль 0 16 км 8/0 3000 m
[Ac]
+23.3 +19.4 79 +30 +30 очень
душно
1012.7 978.9
штиль 0 16 км ясно +21.7 +18.9 84 +27 +27 душно 1012.4 978.6
штиль 0 16 км 2/0 2100 m
[Ac]
+21.1 +18.9 87 +25 +25 комфорт 1012.0 978.3 +20.6 +26.7
штиль 0 16 км 2/0 2100 m
[Ac]
+20.6 +18.9 90 +24 +24 комфорт 1011.6 977.9
штиль 0 16 км 8/0 2100 m
[Ac]
+21.1 +19.4 90 +26 +26 душно 1011.8 977.9
штиль 0 16 км 2/2 1950 м +21.1 +18.9 87 +25 +25 комфорт 1011.9 978.3
штиль 0 16 км 10/10 1320 м +22.2 +19.4 84 +28 +28 душно 1011.9 978.3
штиль 0 16 км ясно +21.7 +19.4 87 +27 +27 душно 1012.1 978.3
ЮЗ 2 16 км 2/0 3300 m
[Ac]
+23.9 +20.6 82 +30 +31 очень
душно
1012.5 978.6 +20.0 +23.9
ЮЗ 4 16 км ясно +26.7 +20.0 67 +33 +35 очень
душно
1012.4 978.6
З 4 16 км ясно +28.3 +20.0 61 +35 +40 очень
душно
1012.3 978.6
З 4 16 км ясно +28.9 +20.6 61 +36 +44 очень
душно
1011.8 977.9
нст 3 16 км ясно +30.0 +20.6 57 +37 +50 очень
душно
1011.5 977.9
ЮЗ 3 16 км 2/2 1290 м +31.7 +21.1 53 +39 +51 опасность
солнечного
удара
1010.8 977.3
З 4 16 км ясно +32.8 +19.4 45 +38 +51 опасность
солнечного
удара
1009.9 976.3 +23.9 +33.3
ЮЗ 4 16 км ясно +33.9 +19.4 43 +40 +52 опасность
солнечного
удара
1008.6 975.0
ЮЗ 5
{9}
16 км ясно +33.9 +19.4 43 +40 +48 очень
душно
1006.8 973.4
ЮЗ 6
{10}
16 км 2/0 3000 m
[Ac]
+33.9 +20.0 44 +40 +44 очень
душно
1006.0 972.7
З 20
{27}
8 км гроза, мгла, шквал 8/2 1470 m
[Ac Cb]
+31.1 +19.4 50
ЮЗ 10
{27}
1 км гроза с сильным дождем, дымка, шквал 8/8 900 m
[Ac Cb]
+22.2 +20.0 87 1009.2
З 4
{13}
н/о гроза с сильным дождем н/о +22.2 +20.0 87
штиль 0 16 км 2/0 3300 m
[Ac]
+22.8 +20.6 87
СВ 2 16 км ясно +23.3 +21.1 87 +31 +36 очень
душно
1008.2 974.4
СВ 2 14 км слабый дождь 10/2 720 m
[Ac Ns]
+23.3 +21.1 87 +31 +31 очень
душно
1008.8 975.0 +21.7 +34.4 9.4
С 2 16 км 5/5 1110 м +22.2 +20.6 91 +29 +29 очень
душно
1008.9 975.3
ЮЗ 2 14 км 10/10 1410 м +22.2 +21.1 93 +29 +29 очень
душно
1009.0 975.3
Местоположение метеостанции Elmira / Corning Regional Airport: широта 42.1564 долгота -76.9028 высота над уровнем моря 291 м.
В архиве по умолчанию представлена погода в Эльмире за последние 1-2 суток. Обновление информации о фактической погоде в базе происходит ежечасно! Архивные данные за месяц целиком и за предыдущие месяцы Вы можете получить, выбрав интересующий диапазон дат из раскрывающегося списка и нажав кнопку "Ввод!".
Внимание! Архив погоды МЕТАР в базе сайта по станциям, не включенным в климатический монитор, хранится не более 60 дней. Нет смысла пытаться выбрать более раннюю дату.
*Определитесь, кто Вы:
Внимание! Время в таблицах - местное (без учета летнего времени). Для получения всемирного времени необходимо вычесть поправку, которая равна -5 ч.
Смотрите также архив погоды в соседних городах и на ближайших метеорологических станциях:
Партнеры нашего сайта:      
Пояснения к столбцам:
  • Ветер - указаны скорость ветра в м/с - средняя за 10 мин, порывы в срок и между сроками (в фигурных скобках) и направление, откуда дует ветер: С - северный,
  • СВ - северо-восточный, В - восточный, ЮВ - юго-восточный, Ю - южный, ЮЗ - юго-западный, З - западный, СЗ - северо-западный.
  • Видимость - горизонтальная дальность видимости в метрах или километрах. При видимости от 1 до 10 км при отсутствии осадков обычно наблюдается дымка, при ухудшении видимости до 1 км и менее - туман. В сухую погоду видимость может ухудшаться дымом, пылью или мглою.
  • Явления - указаны атмосферные явления, наблюдавшиеся в срок или в последний час перед сроком; фигурными скобками обозначены явления, наблюдавшиеся между сроками (за 1-3 часа до срока); квадратными скобками обозначены град или гололедные отложения с указанием их диаметра в мм.
  • Облачность - указаны через наклонную черту общая и нижняя облачность в баллах и высота нижней границы облаков в метрах; квадратными скобками обозначены формы облаков: Ci - перистые, Cs - перисто-слоистые, Cc - перисто-кучевые, Ac - высококучевые, As - высокослоистые, Sc - слоисто-кучевые, Ns - слоисто-дождевые, Cu - кучевые, Cb - кучево-дождевые. Подробнее классификацию облаков см. в Атласе облаков (PDF).
  • T - Температура воздуха - температура, измеренная на высоте 2 м над землей.
  • Td - Температура точки росы - температура, при понижении до которой содержащийся в воздухе водяной пар достигнет насыщения.
  • f - Относительная влажность воздуха - влажноcть воздуха, измеренная на высоте 2 м над землей.
  • Te - Эффективная температура - температура, которую ощущает одетый по сезону человек в тени. Характеристика душности погоды. При расчете учитывается влияние влажности воздуха и скорости ветра на теплоощущения человека.
  • Tes - Эффективная температура на солнце - температура, которую ощущает человек, с поправкой на солнечный нагрев. Характеристика знойности погоды. Зависит от высоты солнца над горизонтом, облачности и скорости ветра. Ночью, в пасмурную погоду, а также при ветре 12 м/с и более поправка равна нулю.
  • P - Атмосферное давление - приведенное к уровню моря атмосферное давление.
  • Po - Атмосферное давление - измеренное на уровне метеостанции атмосферное давление.
  • Tmin - Минимальная температура - минимум температуры воздуха на высоте 2 м над землей.
  • Tmax - Максимальная температура - максимум температуры воздуха на высоте 2 м над землей.
  • R - Количество осадков - Количество выпавших осадков за период времени, мм. При наведении курсора мыши на число - период времени, за который выпало указанное количество осадков.
  • R24 - Количество осадков - Количество выпавших осадков за 24 часа, мм.
  • S - Снежный покров - Высота снежного покрова, см. При наведении курсора мыши на число - состояние снежного покрова и степень покрытия местности в баллах.